Hot Springs, VA

6:07 PM EST on November 23, 2017 (GMT -0500)
Ingalls

Weather History for KHSP - February, 2011

Change the Weather History Date:

Friday, February 18, 2011

  Actual Average Record
Temperature  
Mean Temperature 52 °F -  
Max Temperature 55 °F 36 °F 55 °F (2011)
Min Temperature 46 °F 21 °F 0 °F (2015)
Degree Days  
Heating Degree Days 14    
Growing Degree Days 2 (Base 50)    
Moisture  
Dew Point 44 °F    
Average Humidity 77    
Maximum Humidity 94    
Minimum Humidity 22    
Precipitation  
Precipitation 0.00 in - - ()
Sea Level Pressure  
Sea Level Pressure 30.05 in    
Wind  
Wind Speed 21 mph (West)    
Max Wind Speed 28 mph    
Max Gust Speed 39 mph    
Visibility 10 miles    
Events      
Averages and records for this station are not official NWS values.
T = Trace of Precipitation, MM = Missing Value Source: NWS Daily Summary

Daily Weather History Graph

Daily Weather History Graph

Search for Another Location

Airport or City:

Trip Planner

Search our weather history database for the weather conditions in past years. The results will help you decide how hot, cold, wet, or windy it might be!

Date:

Astronomy

Feb. 18, 2011 Rise Set
Actual Time 7:05 AM EST 6:01 PM EST
Civil Twilight 6:39 AM EST 6:27 PM EST
Nautical Twilight 6:08 AM EST 6:58 PM EST
Astronomical Twilight 5:37 AM EST 7:29 PM EST
Moon 6:49 PM EST (2/18) 6:55 AM EST (2/18)
Length of Visible Light 11h 48m
Length of Day
10h 55m
Full, 100% of the Moon is Illuminated
Feb 18
Full
Feb 24
Last Quarter
Mar 4
New
Mar 12
First Quarter
Mar 19
Full

Hourly Weather History & Observations

Time (EST) Temp. Windchill Dew Point Humidity Pressure Visibility Wind Dir Wind Speed Gust Speed Precip Events Conditions
12:00 AM - - - N/A% 30.05 in - North - - N/A   Unknown
12:20 AM - - - N/A% 30.05 in - North - - N/A   Unknown
12:40 AM - - - N/A% 30.05 in - North - - N/A   Unknown
1:00 AM - - - N/A% 30.05 in - North - - N/A   Unknown
1:20 AM - - - N/A% 30.04 in - North - - N/A   Unknown
1:40 AM - - - N/A% 30.04 in - North - - N/A   Unknown
2:00 AM - - - N/A% 30.04 in - North - - N/A   Unknown
2:20 AM - - - N/A% 30.04 in - North - - N/A   Unknown
2:40 AM - - - N/A% 30.04 in - North - - N/A   Unknown
3:00 AM - - - N/A% 30.04 in - North - - N/A   Unknown
3:20 AM - - - N/A% 30.04 in - North - - N/A   Unknown
3:40 AM - - - N/A% 30.04 in - North - - N/A   Unknown
4:00 AM - - - N/A% 30.04 in - North - - N/A   Unknown
4:20 AM - - - N/A% 30.04 in - North - - N/A   Unknown
4:40 AM - - - N/A% 30.04 in - North - - N/A   Unknown
5:00 AM - - - N/A% 30.04 in - North - - N/A   Unknown
5:20 AM - - - N/A% 30.04 in - North - - N/A   Unknown
5:40 AM - - - N/A% 30.04 in - North - - N/A   Unknown
6:00 AM - - - N/A% 30.04 in - North - - N/A   Unknown
6:20 AM - - - N/A% 30.03 in - North - - N/A   Unknown
6:40 AM - - - N/A% 30.03 in - North - - N/A   Unknown
7:00 AM - - - N/A% 30.04 in - North - - N/A   Unknown
7:20 AM - - - N/A% 30.04 in - North - - N/A   Unknown
7:40 AM - - - N/A% 30.04 in - North - - N/A   Unknown
8:00 AM - - - N/A% 30.05 in - North - - N/A   Unknown
8:20 AM 51.8 °F - 46.4 °F 82% 30.05 in 10.0 mi West 23.0 mph 29.9 mph N/A   Overcast
8:40 AM 51.8 °F - 46.4 °F 82% 30.05 in 10.0 mi West 24.2 mph 29.9 mph N/A   Overcast
9:20 AM 51.8 °F - 46.4 °F 82% 30.05 in 10.0 mi West 24.2 mph 31.1 mph N/A   Overcast
9:40 AM 53.6 °F - 48.2 °F 82% 30.05 in 10.0 mi West 21.9 mph 29.9 mph N/A   Overcast
10:00 AM 53.6 °F - 48.2 °F 82% 30.05 in 10.0 mi West 17.3 mph 27.6 mph N/A   Overcast
10:20 AM 53.6 °F - 48.2 °F 82% 30.05 in 10.0 mi West 18.4 mph 25.3 mph N/A   Overcast
10:40 AM 55.4 °F - 48.2 °F 77% 30.05 in 10.0 mi West 21.9 mph 26.5 mph N/A   Overcast
11:20 AM 55.4 °F - 48.2 °F 77% 30.06 in 10.0 mi West 21.9 mph 28.8 mph N/A   Overcast
11:40 AM 53.6 °F - 48.2 °F 82% 30.06 in 10.0 mi West 20.7 mph 27.6 mph N/A   Overcast
12:00 PM 53.6 °F - 48.2 °F 82% 30.06 in 10.0 mi West 17.3 mph 27.6 mph N/A   Overcast
12:20 PM 53.6 °F - 48.2 °F 82% 30.06 in 10.0 mi West 21.9 mph 27.6 mph N/A   Overcast
12:40 PM 53.6 °F - 50.0 °F 88% 30.05 in 10.0 mi West 17.3 mph 25.3 mph N/A   Overcast
1:00 PM 53.6 °F - 50.0 °F 88% 30.05 in 10.0 mi West 17.3 mph 24.2 mph N/A   Overcast
1:20 PM 53.6 °F - 50.0 °F 88% 30.04 in 10.0 mi West 17.3 mph 26.5 mph N/A   Overcast
1:40 PM 53.6 °F - 51.8 °F 94% 30.04 in 10.0 mi WNW 19.6 mph 26.5 mph N/A   Overcast
2:00 PM 53.6 °F - 51.8 °F 94% 30.03 in 10.0 mi West 16.1 mph 25.3 mph N/A   Overcast
2:20 PM 53.6 °F - 51.8 °F 94% 30.03 in 10.0 mi West 20.7 mph 34.5 mph N/A   Overcast
2:40 PM 53.6 °F - 51.8 °F 94% 30.02 in 10.0 mi West 21.9 mph 29.9 mph N/A   Overcast
3:00 PM 53.6 °F - 50.0 °F 88% 30.02 in 10.0 mi WNW 26.5 mph 39.1 mph N/A   Overcast
3:20 PM 53.6 °F - 50.0 °F 88% 30.02 in 10.0 mi West 27.6 mph 35.7 mph N/A   Overcast
3:40 PM 53.6 °F - 50.0 °F 88% 30.03 in 10.0 mi West 19.6 mph 31.1 mph N/A   Overcast
4:00 PM 53.6 °F - 51.8 °F 94% 30.04 in 10.0 mi West 19.6 mph 31.1 mph N/A   Overcast
4:20 PM 53.6 °F - 51.8 °F 94% 30.03 in 10.0 mi West 17.3 mph 31.1 mph N/A   Overcast
4:40 PM 53.6 °F - 50.0 °F 88% 30.03 in 7.0 mi West 20.7 mph 28.8 mph N/A   Overcast
5:00 PM 51.8 °F - 50.0 °F 94% 30.03 in 10.0 mi West 25.3 mph 35.7 mph N/A   Overcast
5:20 PM 51.8 °F - 50.0 °F 94% 30.03 in 10.0 mi West 26.5 mph 34.5 mph N/A   Mostly Cloudy
5:40 PM 51.8 °F - 48.2 °F 88% 30.03 in 10.0 mi West 20.7 mph 31.1 mph N/A   Mostly Cloudy
6:00 PM 51.8 °F - 48.2 °F 88% 30.05 in 10.0 mi West 17.3 mph 31.1 mph N/A   Overcast
6:20 PM 50.0 °F - 48.2 °F 94% 30.06 in 10.0 mi WNW 20.7 mph 29.9 mph N/A   Overcast
7:00 PM 51.8 °F - 42.8 °F 71% 30.06 in 10.0 mi WNW 15.0 mph 31.1 mph N/A   Scattered Clouds
7:20 PM 51.8 °F - 41.0 °F 67% 30.07 in 10.0 mi WNW 21.9 mph 31.1 mph N/A   Scattered Clouds
7:40 PM 51.8 °F - 37.4 °F 58% 30.07 in 10.0 mi WNW 23.0 mph 34.5 mph N/A   Scattered Clouds
8:00 PM 50.0 °F - 33.8 °F 54% 30.08 in 10.0 mi WNW 18.4 mph 34.5 mph N/A   Clear
8:20 PM 50.0 °F - 21.2 °F 32% 30.07 in 10.0 mi WNW 20.7 mph 39.1 mph N/A   Clear
8:40 PM 50.0 °F - 17.6 °F 28% 30.07 in 10.0 mi WNW 23.0 mph 32.2 mph N/A   Clear
9:00 PM 48.2 °F - 21.2 °F 34% 30.07 in 10.0 mi NW 25.3 mph 35.7 mph N/A   Clear
9:20 PM 48.2 °F - 14.0 °F 25% 30.07 in 10.0 mi WNW 24.2 mph 35.7 mph N/A   Clear
9:40 PM 46.4 °F 38.7 °F 8.6 °F 22% 30.06 in 10.0 mi WNW 20.7 mph 32.2 mph N/A   Clear
10:00 PM 46.4 °F 40.7 °F 6.8 °F 20% 30.06 in 10.0 mi WNW 12.7 mph 35.7 mph N/A   Clear
10:20 PM 46.4 °F 37.7 °F 6.8 °F 20% 30.06 in 10.0 mi WNW 26.5 mph 35.7 mph N/A   Clear
11:00 PM 44.6 °F 36.4 °F 3.2 °F 18% 30.06 in 10.0 mi WNW 20.7 mph 31.1 mph N/A   Clear
11:20 PM 44.6 °F 37.4 °F 6.8 °F 21% 30.05 in 10.0 mi WNW 16.1 mph 35.7 mph N/A   Clear
11:40 PM 42.8 °F 33.8 °F 8.6 °F 25% 30.05 in 10.0 mi WNW 21.9 mph 36.8 mph N/A   Clear